Find Starlink 4480

NORAD ID: 53416 Int'l Des: 2022-097 Owner: SPXS Country: US Constellation: starlink operational
LEOCIRCULAR

リアルタイム位置

3D地球を読み込み中...

Starlink 4480について

説明を読み込み中...

次回通過

Passes for default location (London). Set your location on the main map for personalized predictions.

高度履歴

Loading altitude history...

軌道要素

1 53416U 22097AE 26105.77093986 .00000439 00000-0 45644-4 0 9995
2 53416 53.2162 307.6056 0001096 55.9288 304.1808 15.08843547204229
Epoch: Apr 15, 2026 • Age: 13 hours

現在のステータス

高度 539.3 km
速度 7.60 km/s
衛星直下点 15.01°N, 2.71°E
打ち上げ日 Aug 10, 2022
運用期間 3.6 years
タイプ internet

技術仕様

分類 Payload
質量 297.00 kg
乾燥質量 275.00 kg
総質量 297.00 kg
長さ 0.20 m
直径 2.80 m
スパン 9.00 m
形状 Box + pan
製造者 SPXS
バスタイプ Starlink
フェーズステータス In Orbit
所有者/国 SPXS/US

Most Searched